Time,TemperatureF,DewpointF,PressureIn,WindDirection,WindDirectionDegrees,WindSpeedMPH,WindSpeedGustMPH,Humidity,HourlyPrecipIn,Conditions,Clouds,dailyrainin,SoftwareType,DateUTC
2013-09-05 00:01:00,74.6,73.7,30.07,East,100,0.0,0.0,97,0.00,CLR,,0.00,WeatherDisplay:10.37,2013-09-05 04:01:00,
2013-09-05 00:06:00,74.4,73.5,30.07,East,100,0.0,0.0,97,0.00,CLR,,0.00,WeatherDisplay:10.37,2013-09-05 04:06:00,
2013-09-05 00:11:00,74.2,73.3,30.07,East,100,0.0,0.0,97,0.00,CLR,,0.00,WeatherDisplay:10.37,2013-09-05 04:11:00,
2013-09-05 00:16:00,74.1,73.2,30.07,East,100,0.0,0.0,97,0.00,CLR,,0.00,WeatherDisplay:10.37,2013-09-05 04:16:00,
2013-09-05 00:21:00,74.0,73.1,30.07,East,100,0.0,0.0,97,0.00,CLR,,0.00,WeatherDisplay:10.37,2013-09-05 04:21:00,
2013-09-05 00:26:00,73.8,72.9,30.07,East,100,0.0,0.0,97,0.00,CLR,,0.00,WeatherDisplay:10.37,2013-09-05 04:26:00,
2013-09-05 00:31:00,73.8,72.9,30.07,East,100,0.0,0.0,97,0.00,CLR,,0.00,WeatherDisplay:10.37,2013-09-05 04:31:00,
2013-09-05 00:36:00,73.8,72.9,30.07,East,100,0.0,0.0,97,0.00,CLR,,0.00,WeatherDisplay:10.37,2013-09-05 04:36:00,
2013-09-05 00:42:00,73.7,72.8,30.07,East,99,0.0,0.0,97,0.00,CLR,,0.00,WeatherDisplay:10.37,2013-09-05 04:42:00,
2013-09-05 00:47:00,73.6,72.7,30.07,East,100,0.0,0.0,97,0.00,CLR,,0.00,WeatherDisplay:10.37,2013-09-05 04:47:00,
2013-09-05 00:52:00,73.4,72.5,30.07,East,100,0.0,0.0,97,0.00,CLR,,0.00,WeatherDisplay:10.37,2013-09-05 04:52:00,
2013-09-05 00:57:00,73.3,72.4,30.07,East,99,0.0,0.0,97,0.00,CLR,,0.00,WeatherDisplay:10.37,2013-09-05 04:57:00,
2013-09-05 01:02:00,73.2,72.3,30.07,East,99,0.0,0.0,97,0.00,CLR,,0.00,WeatherDisplay:10.37,2013-09-05 05:02:00,
2013-09-05 01:07:00,73.1,72.2,30.07,East,99,0.0,0.0,97,0.00,CLR,,0.00,WeatherDisplay:10.37,2013-09-05 05:07:00,
2013-09-05 01:12:00,72.9,72.0,30.07,East,99,0.0,0.0,97,0.00,CLR,,0.00,WeatherDisplay:10.37,2013-09-05 05:12:00,
2013-09-05 01:17:00,72.8,71.9,30.07,East,99,0.0,0.0,97,0.00,CLR,,0.00,WeatherDisplay:10.37,2013-09-05 05:17:00,
2013-09-05 01:22:00,72.8,71.9,30.07,East,99,0.0,0.0,97,0.00,CLR,,0.00,WeatherDisplay:10.37,2013-09-05 05:22:00,
2013-09-05 01:27:00,72.7,72.1,30.07,East,99,0.0,0.0,98,0.00,CLR,,0.00,WeatherDisplay:10.37,2013-09-05 05:27:00,
2013-09-05 01:32:00,72.7,72.1,30.07,East,99,0.0,0.0,98,0.00,CLR,,0.00,WeatherDisplay:10.37,2013-09-05 05:32:00,
2013-09-05 01:37:00,72.8,72.2,30.07,East,99,0.0,0.0,98,0.00,CLR,,0.00,WeatherDisplay:10.37,2013-09-05 05:37:00,
2013-09-05 01:42:00,72.8,72.2,30.07,East,99,0.0,0.0,98,0.00,CLR,,0.00,WeatherDisplay:10.37,2013-09-05 05:42:00,
2013-09-05 01:47:00,72.8,72.2,30.06,East,99,0.0,0.0,98,0.00,CLR,,0.00,WeatherDisplay:10.37,2013-09-05 05:47:00,
2013-09-05 01:52:00,72.8,72.2,30.06,East,99,0.0,0.0,98,0.00,CLR,,0.00,WeatherDisplay:10.37,2013-09-05 05:52:00,
2013-09-05 01:57:00,72.9,72.3,30.06,East,99,0.0,0.0,98,0.00,CLR,,0.00,WeatherDisplay:10.37,2013-09-05 05:57:00,
2013-09-05 02:02:00,72.8,72.2,30.06,East,99,0.0,0.0,98,0.00,CLR,,0.00,WeatherDisplay:10.37,2013-09-05 06:02:00,
2013-09-05 02:07:00,72.8,72.2,30.05,East,99,0.0,0.0,98,0.00,CLR,,0.00,WeatherDisplay:10.37,2013-09-05 06:07:00,
2013-09-05 02:12:00,72.7,72.1,30.05,East,99,0.0,0.0,98,0.00,CLR,,0.00,WeatherDisplay:10.37,2013-09-05 06:12:00,
2013-09-05 02:17:00,72.7,72.1,30.06,East,99,0.0,0.0,98,0.00,CLR,,0.00,WeatherDisplay:10.37,2013-09-05 06:17:00,
2013-09-05 02:22:00,72.8,72.2,30.05,East,99,0.0,0.0,98,0.00,CLR,,0.00,WeatherDisplay:10.37,2013-09-05 06:22:00,
2013-09-05 02:27:00,72.8,72.2,30.05,East,99,0.0,0.0,98,0.00,CLR,,0.00,WeatherDisplay:10.37,2013-09-05 06:27:00,
2013-09-05 02:32:00,72.7,72.1,30.05,East,99,0.0,0.0,98,0.00,CLR,,0.00,WeatherDisplay:10.37,2013-09-05 06:32:00,
2013-09-05 02:37:00,72.6,72.0,30.05,East,99,0.0,0.0,98,0.00,CLR,,0.00,WeatherDisplay:10.37,2013-09-05 06:37:00,
2013-09-05 02:42:00,72.5,71.9,30.05,East,99,0.0,0.0,98,0.00,CLR,,0.00,WeatherDisplay:10.37,2013-09-05 06:42:00,
2013-09-05 02:47:00,72.4,71.8,30.05,East,99,0.0,0.0,98,0.00,CLR,,0.00,WeatherDisplay:10.37,2013-09-05 06:47:00,
2013-09-05 02:52:00,72.4,71.8,30.05,East,99,0.0,0.0,98,0.00,CLR,,0.00,WeatherDisplay:10.37,2013-09-05 06:52:00,
2013-09-05 02:57:00,72.4,71.8,30.05,East,99,0.0,0.0,98,0.00,CLR,,0.00,WeatherDisplay:10.37,2013-09-05 06:57:00,
2013-09-05 03:02:00,72.3,71.7,30.05,East,99,0.0,0.0,98,0.00,CLR,,0.00,WeatherDisplay:10.37,2013-09-05 07:02:00,
2013-09-05 03:07:00,72.2,71.6,30.05,East,99,0.0,0.0,98,0.00,CLR,,0.00,WeatherDisplay:10.37,2013-09-05 07:07:00,
2013-09-05 03:12:00,72.1,71.5,30.05,East,99,0.0,0.0,98,0.00,CLR,,0.00,WeatherDisplay:10.37,2013-09-05 07:12:00,
2013-09-05 03:17:00,72.1,71.5,30.05,East,99,0.0,0.0,98,0.00,CLR,,0.00,WeatherDisplay:10.37,2013-09-05 07:17:00,
2013-09-05 03:22:00,72.1,71.5,30.05,East,99,0.0,0.0,98,0.00,CLR,,0.00,WeatherDisplay:10.37,2013-09-05 07:22:00,
2013-09-05 03:27:00,72.1,71.5,30.05,East,99,0.0,0.0,98,0.00,CLR,,0.00,WeatherDisplay:10.37,2013-09-05 07:27:00,
2013-09-05 03:32:00,72.1,71.5,30.05,East,99,0.0,0.0,98,0.00,CLR,,0.00,WeatherDisplay:10.37,2013-09-05 07:32:00,
2013-09-05 03:37:00,72.1,71.5,30.05,East,99,0.0,0.0,98,0.00,CLR,,0.00,WeatherDisplay:10.37,2013-09-05 07:37:00,
2013-09-05 03:42:00,72.1,71.5,30.04,East,99,0.0,0.0,98,0.00,CLR,,0.00,WeatherDisplay:10.37,2013-09-05 07:42:00,
2013-09-05 03:47:00,72.1,71.5,30.04,East,99,0.0,0.0,98,0.00,CLR,,0.00,WeatherDisplay:10.37,2013-09-05 07:47:00,
2013-09-05 03:52:00,72.1,71.5,30.04,East,99,0.0,0.0,98,0.00,CLR,,0.00,WeatherDisplay:10.37,2013-09-05 07:52:00,
2013-09-05 03:57:00,72.0,71.4,30.04,East,99,0.0,0.0,98,0.00,CLR,,0.00,WeatherDisplay:10.37,2013-09-05 07:57:00,
2013-09-05 04:02:00,71.9,71.3,30.04,East,99,0.0,0.0,98,0.00,CLR,,0.00,WeatherDisplay:10.37,2013-09-05 08:02:00,
2013-09-05 04:07:00,71.8,71.5,30.04,East,99,0.0,0.0,99,0.00,CLR,,0.00,WeatherDisplay:10.37,2013-09-05 08:07:00,
2013-09-05 04:12:00,71.8,71.5,30.04,East,99,0.0,0.0,99,0.00,CLR,,0.00,WeatherDisplay:10.37,2013-09-05 08:12:00,
2013-09-05 04:17:00,71.7,71.4,30.04,East,99,0.0,0.0,99,0.00,CLR,,0.00,WeatherDisplay:10.37,2013-09-05 08:17:00,
2013-09-05 04:22:00,71.7,71.1,30.04,East,99,0.0,0.0,98,0.00,CLR,,0.00,WeatherDisplay:10.37,2013-09-05 08:22:00,
2013-09-05 04:27:00,71.6,71.0,30.04,East,99,0.0,0.0,98,0.00,CLR,,0.00,WeatherDisplay:10.37,2013-09-05 08:27:00,
2013-09-05 04:32:00,71.6,71.0,30.04,East,99,0.0,0.0,98,0.00,CLR,,0.00,WeatherDisplay:10.37,2013-09-05 08:32:00,
2013-09-05 04:37:00,71.5,70.9,30.04,East,99,0.0,0.0,98,0.00,CLR,,0.00,WeatherDisplay:10.37,2013-09-05 08:37:00,
2013-09-05 04:42:00,71.5,70.9,30.05,East,99,0.0,0.0,98,0.00,CLR,,0.00,WeatherDisplay:10.37,2013-09-05 08:42:00,
2013-09-05 04:47:00,71.4,71.1,30.05,East,99,0.0,0.0,99,0.00,CLR,,0.00,WeatherDisplay:10.37,2013-09-05 08:47:00,
2013-09-05 04:52:00,71.4,71.1,30.05,East,99,0.0,0.0,99,0.00,CLR,,0.00,WeatherDisplay:10.37,2013-09-05 08:52:00,
2013-09-05 04:57:00,71.3,71.0,30.04,East,99,0.0,0.0,99,0.00,CLR,,0.00,WeatherDisplay:10.37,2013-09-05 08:57:00,
2013-09-05 05:02:00,71.2,70.9,30.04,East,99,0.0,0.0,99,0.00,CLR,,0.00,WeatherDisplay:10.37,2013-09-05 09:02:00,
2013-09-05 05:07:00,71.2,70.9,30.04,East,99,0.0,0.0,99,0.00,CLR,,0.00,WeatherDisplay:10.37,2013-09-05 09:07:00,
2013-09-05 05:12:00,71.1,70.8,30.04,East,99,0.0,0.0,99,0.00,CLR,,0.00,WeatherDisplay:10.37,2013-09-05 09:12:00,
2013-09-05 05:17:00,71.1,70.8,30.04,East,99,0.0,0.0,99,0.00,CLR,,0.00,WeatherDisplay:10.37,2013-09-05 09:17:00,
2013-09-05 05:22:00,71.1,70.8,30.04,East,99,0.0,0.0,99,0.00,CLR,,0.00,WeatherDisplay:10.37,2013-09-05 09:22:00,
2013-09-05 05:27:00,71.0,70.7,30.03,East,99,0.0,0.0,99,0.00,CLR,,0.00,WeatherDisplay:10.37,2013-09-05 09:27:00,
2013-09-05 05:32:00,70.9,70.3,30.04,East,99,0.0,0.0,98,0.00,CLR,,0.00,WeatherDisplay:10.37,2013-09-05 09:32:00,
2013-09-05 05:37:00,70.9,70.6,30.04,East,99,0.0,0.0,99,0.00,CLR,,0.00,WeatherDisplay:10.37,2013-09-05 09:37:00,
2013-09-05 05:42:00,70.9,70.6,30.04,East,99,0.0,0.0,99,0.00,CLR,,0.00,WeatherDisplay:10.37,2013-09-05 09:42:00,
2013-09-05 05:47:00,70.8,70.5,30.04,East,99,0.0,0.0,99,0.00,CLR,,0.00,WeatherDisplay:10.37,2013-09-05 09:47:00,
2013-09-05 05:52:00,70.6,70.3,30.04,East,99,0.0,0.0,99,0.00,CLR,,0.00,WeatherDisplay:10.37,2013-09-05 09:52:00,
2013-09-05 05:57:00,70.5,70.2,30.04,East,99,0.0,0.0,99,0.00,CLR,,0.00,WeatherDisplay:10.37,2013-09-05 09:57:00,
2013-09-05 06:02:00,70.4,69.8,30.04,East,99,0.0,0.0,98,0.00,CLR,,0.00,WeatherDisplay:10.37,2013-09-05 10:02:00,
2013-09-05 06:07:00,70.4,69.8,30.04,East,99,0.0,0.0,98,0.00,CLR,,0.00,WeatherDisplay:10.37,2013-09-05 10:07:00,
2013-09-05 06:12:00,70.3,69.7,30.04,East,99,0.0,0.0,98,0.00,CLR,,0.00,WeatherDisplay:10.37,2013-09-05 10:12:00,
2013-09-05 06:17:00,70.3,70.0,30.04,East,99,0.0,0.0,99,0.00,CLR,,0.00,WeatherDisplay:10.37,2013-09-05 10:17:00,
2013-09-05 06:22:00,70.2,69.9,30.04,East,99,0.0,0.0,99,0.00,CLR,,0.00,WeatherDisplay:10.37,2013-09-05 10:22:00,
2013-09-05 06:27:00,70.2,69.9,30.04,East,99,0.0,0.0,99,0.00,CLR,,0.00,WeatherDisplay:10.37,2013-09-05 10:27:00,
2013-09-05 06:32:00,70.1,69.8,30.05,East,99,0.0,0.0,99,0.00,CLR,,0.00,WeatherDisplay:10.37,2013-09-05 10:32:00,
2013-09-05 06:37:00,70.0,69.7,30.05,East,99,0.0,0.0,99,0.00,CLR,,0.00,WeatherDisplay:10.37,2013-09-05 10:37:00,
2013-09-05 06:42:00,69.9,69.6,30.05,East,99,0.0,0.0,99,0.00,CLR,,0.00,WeatherDisplay:10.37,2013-09-05 10:42:00,
2013-09-05 06:47:00,69.9,69.6,30.05,East,99,0.0,0.0,99,0.00,CLR,,0.00,WeatherDisplay:10.37,2013-09-05 10:47:00,
2013-09-05 06:52:00,70.0,69.7,30.05,East,99,0.0,0.0,99,0.00,CLR,,0.00,WeatherDisplay:10.37,2013-09-05 10:52:00,
2013-09-05 06:57:00,70.1,69.8,30.05,East,99,0.0,0.0,99,0.00,CLR,,0.00,WeatherDisplay:10.37,2013-09-05 10:57:00,
2013-09-05 07:02:00,70.1,69.8,30.05,East,99,0.0,0.0,99,0.00,CLR,,0.00,WeatherDisplay:10.37,2013-09-05 11:02:00,
2013-09-05 07:07:00,70.2,69.9,30.05,East,99,0.0,0.0,99,0.00,CLR,,0.00,WeatherDisplay:10.37,2013-09-05 11:07:00,
2013-09-05 07:12:00,70.3,70.0,30.06,East,99,0.0,0.0,99,0.00,CLR,,0.00,WeatherDisplay:10.37,2013-09-05 11:12:00,
2013-09-05 07:17:00,70.3,70.0,30.06,East,99,0.0,0.0,99,0.00,CLR,,0.00,WeatherDisplay:10.37,2013-09-05 11:17:00,
2013-09-05 07:22:00,70.4,70.1,30.06,East,99,0.0,0.0,99,0.00,CLR,,0.00,WeatherDisplay:10.37,2013-09-05 11:22:00,
2013-09-05 07:27:00,70.4,70.1,30.06,East,99,0.0,0.0,99,0.00,CLR,,0.00,WeatherDisplay:10.37,2013-09-05 11:27:00,
2013-09-05 07:32:00,70.7,70.4,30.06,East,99,0.0,0.0,99,0.00,CLR,,0.00,WeatherDisplay:10.37,2013-09-05 11:32:00,
2013-09-05 07:37:00,71.0,70.7,30.06,East,99,0.0,0.0,99,0.00,CLR,,0.00,WeatherDisplay:10.37,2013-09-05 11:37:00,
2013-09-05 07:42:00,71.3,71.0,30.06,East,99,0.0,0.0,99,0.00,CLR,,0.00,WeatherDisplay:10.37,2013-09-05 11:42:00,
2013-09-05 07:47:00,71.5,71.2,30.06,East,99,0.0,0.0,99,0.00,CLR,,0.00,WeatherDisplay:10.37,2013-09-05 11:47:00,
2013-09-05 07:52:00,71.8,71.5,30.06,East,99,0.0,0.0,99,0.00,CLR,,0.00,WeatherDisplay:10.37,2013-09-05 11:52:00,
2013-09-05 07:57:00,72.1,72.1,30.06,East,99,0.0,0.0,100,0.00,CLR,,0.00,WeatherDisplay:10.37,2013-09-05 11:57:00,
2013-09-05 08:02:00,72.4,72.1,30.07,East,99,0.0,0.0,99,0.00,CLR,,0.00,WeatherDisplay:10.37,2013-09-05 12:02:00,
2013-09-05 08:07:00,72.9,72.9,30.07,East,99,0.0,0.0,100,0.00,CLR,,0.00,WeatherDisplay:10.37,2013-09-05 12:07:00,
2013-09-05 08:12:00,73.4,73.4,30.07,East,99,0.0,0.0,100,0.00,CLR,,0.00,WeatherDisplay:10.37,2013-09-05 12:12:00,
2013-09-05 08:17:00,74.1,74.1,30.07,East,99,0.0,0.0,100,0.00,CLR,,0.00,WeatherDisplay:10.37,2013-09-05 12:17:00,
2013-09-05 08:22:00,74.6,74.6,30.07,East,99,0.0,0.0,100,0.00,CLR,,0.00,WeatherDisplay:10.37,2013-09-05 12:22:00,
2013-09-05 08:27:00,75.1,75.1,30.07,East,99,0.0,0.0,100,0.00,CLR,,0.00,WeatherDisplay:10.37,2013-09-05 12:27:00,
2013-09-05 08:32:00,75.5,75.5,30.07,East,99,0.0,0.0,100,0.00,CLR,,0.00,WeatherDisplay:10.37,2013-09-05 12:32:00,
2013-09-05 08:37:00,76.0,76.0,30.07,East,99,0.0,0.0,100,0.00,CLR,,0.00,WeatherDisplay:10.37,2013-09-05 12:37:00,
2013-09-05 08:42:00,76.1,76.1,30.07,East,99,0.0,0.0,100,0.00,CLR,,0.00,WeatherDisplay:10.37,2013-09-05 12:42:00,
2013-09-05 08:47:00,76.4,76.4,30.07,East,99,0.0,0.0,100,0.00,CLR,,0.00,WeatherDisplay:10.37,2013-09-05 12:47:00,
2013-09-05 08:52:00,76.6,76.6,30.07,East,99,0.0,0.0,100,0.00,CLR,,0.00,WeatherDisplay:10.37,2013-09-05 12:52:00,
2013-09-05 08:57:00,77.0,77.0,30.07,East,99,0.0,0.0,100,0.00,CLR,,0.00,WeatherDisplay:10.37,2013-09-05 12:57:00,
2013-09-05 09:02:00,77.2,77.2,30.07,East,99,0.0,0.0,100,0.00,CLR,,0.00,WeatherDisplay:10.37,2013-09-05 13:02:00,
2013-09-05 09:07:00,77.4,77.4,30.07,East,99,0.0,0.0,100,0.00,CLR,,0.00,WeatherDisplay:10.37,2013-09-05 13:07:00,
2013-09-05 09:12:00,77.6,77.6,30.07,East,99,0.0,0.0,100,0.00,CLR,,0.00,WeatherDisplay:10.37,2013-09-05 13:12:00,
2013-09-05 09:17:00,77.6,77.6,30.07,ENE,71,0.9,3.5,100,0.00,CLR,,0.00,WeatherDisplay:10.37,2013-09-05 13:17:00,
2013-09-05 09:22:00,77.8,77.5,30.08,ENE,71,0.1,1.1,99,0.00,CLR,,0.00,WeatherDisplay:10.37,2013-09-05 13:22:00,
2013-09-05 09:27:00,78.1,77.8,30.08,ENE,71,0.0,0.0,99,0.00,CLR,,0.00,WeatherDisplay:10.37,2013-09-05 13:27:00,
2013-09-05 09:32:00,78.3,78.0,30.07,ENE,71,0.0,0.0,99,0.00,CLR,,0.00,WeatherDisplay:10.37,2013-09-05 13:32:00,
2013-09-05 09:37:00,78.4,77.8,30.08,ENE,71,0.1,1.1,98,0.00,CLR,,0.00,WeatherDisplay:10.37,2013-09-05 13:37:00,
2013-09-05 09:42:00,78.6,77.7,30.07,ENE,71,0.2,0.0,97,0.00,CLR,,0.00,WeatherDisplay:10.37,2013-09-05 13:42:00,
2013-09-05 09:47:00,79.1,77.9,30.08,ENE,71,0.1,1.1,96,0.00,CLR,,0.00,WeatherDisplay:10.37,2013-09-05 13:47:00,
2013-09-05 09:52:00,79.8,78.2,30.07,ENE,71,0.0,1.1,95,0.00,CLR,,0.00,WeatherDisplay:10.37,2013-09-05 13:52:00,
2013-09-05 09:57:00,80.3,78.1,30.08,ENE,71,0.0,0.0,93,0.00,CLR,,0.00,WeatherDisplay:10.37,2013-09-05 13:57:00,
2013-09-05 10:02:00,80.7,78.2,30.07,ENE,71,0.1,1.1,92,0.00,CLR,,0.00,WeatherDisplay:10.37,2013-09-05 14:02:00,
2013-09-05 10:07:00,80.9,77.7,30.08,NE,52,0.0,0.0,90,0.00,CLR,,0.00,WeatherDisplay:10.37,2013-09-05 14:07:00,
2013-09-05 10:12:00,81.4,77.5,30.08,NNW,337,0.2,3.5,88,0.00,CLR,,0.00,WeatherDisplay:10.37,2013-09-05 14:12:00,
2013-09-05 10:17:00,81.7,77.5,30.08,NNW,344,3.1,3.5,87,0.00,CLR,,0.00,WeatherDisplay:10.37,2013-09-05 14:17:00,
2013-09-05 10:22:00,81.8,77.2,30.08,NNW,344,0.5,3.5,86,0.00,CLR,,0.00,WeatherDisplay:10.37,2013-09-05 14:22:00,
2013-09-05 10:27:00,81.8,77.2,30.08,NNW,344,2.8,4.6,86,0.00,CLR,,0.00,WeatherDisplay:10.37,2013-09-05 14:27:00,
2013-09-05 10:32:00,81.9,76.9,30.08,NNW,330,0.0,1.1,85,0.00,CLR,,0.00,WeatherDisplay:10.37,2013-09-05 14:32:00,
2013-09-05 10:37:00,82.3,77.7,30.08,North,350,2.9,3.5,86,0.00,CLR,,0.00,WeatherDisplay:10.37,2013-09-05 14:37:00,
2013-09-05 10:42:00,82.5,77.5,30.08,North,350,0.1,2.3,85,0.00,CLR,,0.00,WeatherDisplay:10.37,2013-09-05 14:42:00,
2013-09-05 10:47:00,82.7,78.1,30.08,NNE,20,0.3,3.5,86,0.00,CLR,,0.00,WeatherDisplay:10.37,2013-09-05 14:47:00,
2013-09-05 10:52:00,82.7,77.4,30.08,NNW,348,2.0,3.5,84,0.00,CLR,,0.00,WeatherDisplay:10.37,2013-09-05 14:52:00,
2013-09-05 10:57:00,82.6,76.9,30.08,NNW,348,0.3,3.0,83,0.00,CLR,,0.00,WeatherDisplay:10.37,2013-09-05 14:57:00,
2013-09-05 11:02:00,83.0,77.3,30.08,NW,324,2.3,3.5,83,0.00,CLR,,0.00,WeatherDisplay:10.37,2013-09-05 15:02:00,
2013-09-05 11:07:00,83.4,77.7,30.08,NNW,329,5.7,5.8,83,0.00,CLR,,0.00,WeatherDisplay:10.37,2013-09-05 15:07:00,
2013-09-05 11:12:00,83.1,77.4,30.08,NNW,346,2.8,4.0,83,0.00,CLR,,0.00,WeatherDisplay:10.37,2013-09-05 15:12:00,
2013-09-05 11:17:00,82.8,77.1,30.08,NNW,346,2.5,3.5,83,0.00,CLR,,0.00,WeatherDisplay:10.37,2013-09-05 15:17:00,
2013-09-05 11:22:00,82.6,77.3,30.08,NNW,346,0.0,0.0,84,0.00,CLR,,0.00,WeatherDisplay:10.37,2013-09-05 15:22:00,
2013-09-05 11:27:00,82.5,77.2,30.08,NNW,346,0.1,0.0,84,0.00,CLR,,0.00,WeatherDisplay:10.37,2013-09-05 15:27:00,
2013-09-05 11:32:00,83.0,77.3,30.08,NNW,346,0.0,0.0,83,0.00,CLR,,0.00,WeatherDisplay:10.37,2013-09-05 15:32:00,
2013-09-05 11:37:00,83.6,76.4,30.08,NNW,346,0.0,0.0,79,0.00,CLR,,0.00,WeatherDisplay:10.37,2013-09-05 15:37:00,
2013-09-05 11:42:00,84.5,78.0,30.07,NNW,347,0.0,0.0,81,0.00,CLR,,0.00,WeatherDisplay:10.37,2013-09-05 15:42:00,
2013-09-05 11:47:00,85.2,77.9,30.07,NNW,347,0.1,1.1,79,0.00,CLR,,0.00,WeatherDisplay:10.37,2013-09-05 15:47:00,
2013-09-05 11:52:00,86.0,78.3,30.07,ESE,109,1.5,3.5,78,0.00,CLR,,0.00,WeatherDisplay:10.37,2013-09-05 15:52:00,
2013-09-05 11:57:00,86.6,78.5,30.07,ESE,120,1.4,4.6,77,0.00,CLR,,0.00,WeatherDisplay:10.37,2013-09-05 15:57:00,
2013-09-05 12:02:00,86.8,78.3,30.07,South,186,2.9,5.8,76,0.00,CLR,,0.00,WeatherDisplay:10.37,2013-09-05 16:02:00,
2013-09-05 12:07:00,86.7,79.0,30.07,SE,138,0.3,3.5,78,0.00,CLR,,0.00,WeatherDisplay:10.37,2013-09-05 16:07:00,
2013-09-05 12:12:00,86.9,80.0,30.07,South,181,0.0,1.1,80,0.00,CLR,,0.00,WeatherDisplay:10.37,2013-09-05 16:12:00,
2013-09-05 12:17:00,87.0,78.5,30.07,SE,132,0.7,3.5,76,0.00,CLR,,0.00,WeatherDisplay:10.37,2013-09-05 16:17:00,
2013-09-05 12:22:00,87.3,78.4,30.07,SE,133,0.0,1.1,75,0.00,CLR,,0.00,WeatherDisplay:10.37,2013-09-05 16:22:00,
2013-09-05 12:27:00,87.4,78.5,30.06,SE,133,0.9,2.3,75,0.00,CLR,,0.00,WeatherDisplay:10.37,2013-09-05 16:27:00,
2013-09-05 12:32:00,87.6,79.1,30.07,SSE,148,0.0,3.5,76,0.00,CLR,,0.00,WeatherDisplay:10.37,2013-09-05 16:32:00,
2013-09-05 12:37:00,87.1,78.6,30.06,SE,128,0.9,5.0,76,0.00,CLR,,0.00,WeatherDisplay:10.37,2013-09-05 16:37:00,
2013-09-05 12:42:00,86.7,79.0,30.06,SE,136,3.2,4.6,78,0.00,CLR,,0.00,WeatherDisplay:10.37,2013-09-05 16:42:00,
2013-09-05 12:47:00,86.2,79.7,30.06,SE,129,2.5,3.5,81,0.00,CLR,,0.00,WeatherDisplay:10.37,2013-09-05 16:47:00,
2013-09-05 12:52:00,85.5,78.6,30.06,South,186,2.0,5.0,80,0.00,CLR,,0.00,WeatherDisplay:10.37,2013-09-05 16:52:00,
2013-09-05 12:57:00,85.0,79.3,30.06,South,180,0.2,2.0,83,0.00,CLR,,0.00,WeatherDisplay:10.37,2013-09-05 16:57:00,
2013-09-05 13:02:00,84.8,77.9,30.06,SSW,207,3.7,5.8,80,0.00,CLR,,0.00,WeatherDisplay:10.37,2013-09-05 17:02:00,
2013-09-05 13:07:00,84.3,77.8,30.06,SE,133,2.2,3.5,81,0.00,CLR,,0.00,WeatherDisplay:10.37,2013-09-05 17:07:00,
2013-09-05 13:12:00,84.1,78.0,30.05,SSE,150,3.8,4.6,82,0.00,CLR,,0.00,WeatherDisplay:10.37,2013-09-05 17:12:00,
2013-09-05 13:17:00,84.5,78.4,30.05,SSW,209,4.1,6.0,82,0.00,CLR,,0.00,WeatherDisplay:10.37,2013-09-05 17:17:00,
2013-09-05 13:22:00,85.2,78.3,30.05,SSW,195,6.9,12.7,80,0.00,CLR,,0.00,WeatherDisplay:10.37,2013-09-05 17:22:00,
2013-09-05 13:27:00,85.2,78.7,30.04,SSW,202,3.5,9.2,81,0.00,CLR,,0.00,WeatherDisplay:10.37,2013-09-05 17:27:00,
2013-09-05 13:32:00,84.8,78.3,30.04,SSW,205,0.1,3.5,81,0.00,CLR,,0.00,WeatherDisplay:10.37,2013-09-05 17:32:00,
2013-09-05 13:37:00,84.9,78.4,30.05,South,182,0.9,4.6,81,0.00,CLR,,0.00,WeatherDisplay:10.37,2013-09-05 17:37:00,
2013-09-05 13:42:00,84.9,78.8,30.05,SSW,204,1.7,3.5,82,0.00,CLR,,0.00,WeatherDisplay:10.37,2013-09-05 17:42:00,
2013-09-05 13:47:00,84.7,78.2,30.04,SSW,198,3.0,5.8,81,0.00,CLR,,0.00,WeatherDisplay:10.37,2013-09-05 17:47:00,
2013-09-05 13:52:00,84.3,77.5,30.05,South,171,2.1,6.9,80,0.00,CLR,,0.00,WeatherDisplay:10.37,2013-09-05 17:52:00,
2013-09-05 13:57:00,83.6,77.1,30.04,South,182,3.3,4.6,81,0.00,CLR,,0.00,WeatherDisplay:10.37,2013-09-05 17:57:00,
2013-09-05 14:02:00,82.9,77.2,30.05,SSW,209,0.6,6.9,83,0.00,CLR,,0.00,WeatherDisplay:10.37,2013-09-05 18:02:00,
2013-09-05 14:07:00,82.3,77.3,30.04,SE,144,0.7,5.0,85,0.00,CLR,,0.00,WeatherDisplay:10.37,2013-09-05 18:07:00,
2013-09-05 14:12:00,81.9,77.6,30.05,SE,146,0.0,0.0,87,0.01,RA,,0.01,WeatherDisplay:10.37,2013-09-05 18:12:00,
2013-09-05 14:17:00,81.5,77.9,30.05,SE,146,0.0,0.0,89,0.02,RA,,0.02,WeatherDisplay:10.37,2013-09-05 18:17:00,
2013-09-05 14:22:00,81.2,78.0,30.05,SE,146,0.0,0.0,90,0.03,RA,,0.03,WeatherDisplay:10.37,2013-09-05 18:22:00,
2013-09-05 14:27:00,80.5,77.0,30.05,North,355,4.9,5.8,89,0.05,RA,,0.05,WeatherDisplay:10.37,2013-09-05 18:27:00,
2013-09-05 14:32:00,79.4,76.2,30.04,NNE,25,0.0,1.1,90,0.06,RA,,0.06,WeatherDisplay:10.37,2013-09-05 18:32:00,
2013-09-05 14:37:00,78.5,75.3,30.05,East,82,0.1,1.1,90,0.06,RA,,0.06,WeatherDisplay:10.37,2013-09-05 18:37:00,
2013-09-05 14:42:00,77.5,74.0,30.06,ENE,57,0.0,1.1,89,0.06,CLR,,0.06,WeatherDisplay:10.37,2013-09-05 18:42:00,
2013-09-05 14:47:00,76.6,73.4,30.05,NNE,30,0.0,3.5,90,0.06,CLR,,0.06,WeatherDisplay:10.37,2013-09-05 18:47:00,
2013-09-05 14:52:00,76.2,73.4,30.05,NNE,29,0.0,1.1,91,0.06,CLR,,0.06,WeatherDisplay:10.37,2013-09-05 18:52:00,
2013-09-05 14:57:00,76.1,73.6,30.05,NNE,30,0.0,0.0,92,0.06,CLR,,0.06,WeatherDisplay:10.37,2013-09-05 18:57:00,
2013-09-05 15:02:00,76.0,73.8,30.03,NNE,30,0.0,0.0,93,0.06,CLR,,0.06,WeatherDisplay:10.37,2013-09-05 19:02:00,
2013-09-05 15:07:00,76.0,74.1,30.03,NNE,30,0.0,0.0,94,0.06,CLR,,0.06,WeatherDisplay:10.37,2013-09-05 19:07:00,
2013-09-05 15:12:00,75.9,74.0,30.03,NNE,30,0.0,0.0,94,0.05,CLR,,0.06,WeatherDisplay:10.37,2013-09-05 19:12:00,
2013-09-05 15:17:00,76.1,74.6,30.04,NNE,30,0.0,0.0,95,0.04,CLR,,0.06,WeatherDisplay:10.37,2013-09-05 19:17:00,
2013-09-05 15:22:00,76.3,74.8,30.04,NNE,29,0.0,0.0,95,0.03,CLR,,0.06,WeatherDisplay:10.37,2013-09-05 19:22:00,
2013-09-05 15:27:00,76.3,74.8,30.03,NNE,29,0.0,0.0,95,0.01,CLR,,0.06,WeatherDisplay:10.37,2013-09-05 19:27:00,
2013-09-05 15:32:00,76.4,75.2,30.04,NNE,29,0.0,0.0,96,0.00,CLR,,0.06,WeatherDisplay:10.37,2013-09-05 19:32:00,
2013-09-05 15:37:00,76.4,75.2,30.03,NNE,29,0.0,1.1,96,0.00,CLR,,0.06,WeatherDisplay:10.37,2013-09-05 19:37:00,
2013-09-05 15:42:00,76.3,75.1,30.03,NW,320,0.0,3.5,96,0.00,CLR,,0.06,WeatherDisplay:10.37,2013-09-05 19:42:00,
2013-09-05 15:47:00,76.3,75.1,30.03,NW,320,0.0,0.0,96,0.01,RA,,0.07,WeatherDisplay:10.37,2013-09-05 19:47:00,
2013-09-05 15:52:00,76.2,75.0,30.03,NW,320,0.0,0.0,96,0.01,RA,,0.07,WeatherDisplay:10.37,2013-09-05 19:52:00,
2013-09-05 15:57:00,76.3,75.1,30.02,NW,320,0.0,0.0,96,0.01,CLR,,0.07,WeatherDisplay:10.37,2013-09-05 19:57:00,
2013-09-05 16:02:00,76.2,75.0,30.03,NW,320,0.0,0.0,96,0.01,CLR,,0.07,WeatherDisplay:10.37,2013-09-05 20:02:00,
2013-09-05 16:07:00,76.3,75.4,30.02,NW,320,0.2,0.0,97,0.01,CLR,,0.07,WeatherDisplay:10.37,2013-09-05 20:07:00,
2013-09-05 16:12:00,76.5,75.6,30.02,NW,320,0.0,0.0,97,0.01,CLR,,0.07,WeatherDisplay:10.37,2013-09-05 20:12:00,
2013-09-05 16:17:00,76.7,75.8,30.02,NW,320,0.0,0.0,97,0.01,CLR,,0.07,WeatherDisplay:10.37,2013-09-05 20:17:00,
2013-09-05 16:22:00,76.8,75.9,30.03,NW,320,0.0,0.0,97,0.01,CLR,,0.07,WeatherDisplay:10.37,2013-09-05 20:22:00,
2013-09-05 16:27:00,76.9,76.0,30.02,NW,320,0.0,0.0,97,0.01,CLR,,0.07,WeatherDisplay:10.37,2013-09-05 20:27:00,
2013-09-05 16:32:00,77.0,76.1,30.02,NW,320,0.1,3.5,97,0.01,CLR,,0.07,WeatherDisplay:10.37,2013-09-05 20:32:00,
2013-09-05 16:37:00,77.0,76.1,30.02,NW,320,0.0,0.0,97,0.01,CLR,,0.07,WeatherDisplay:10.37,2013-09-05 20:37:00,
2013-09-05 16:42:00,77.0,76.1,30.02,NW,320,0.0,0.0,97,0.01,CLR,,0.07,WeatherDisplay:10.37,2013-09-05 20:42:00,
2013-09-05 16:47:00,77.0,76.1,30.02,NW,320,0.0,0.0,97,0.00,CLR,,0.07,WeatherDisplay:10.37,2013-09-05 20:47:00,
2013-09-05 16:52:00,77.0,76.1,30.02,NW,320,0.0,0.0,97,0.00,CLR,,0.07,WeatherDisplay:10.37,2013-09-05 20:52:00,
2013-09-05 16:57:00,77.0,76.1,30.02,NW,320,0.0,0.0,97,0.00,CLR,,0.07,WeatherDisplay:10.37,2013-09-05 20:57:00,
2013-09-05 17:02:00,77.1,76.2,30.02,NW,320,0.0,0.0,97,0.00,CLR,,0.07,WeatherDisplay:10.37,2013-09-05 21:02:00,
2013-09-05 17:07:00,77.3,76.4,30.02,NW,320,0.0,0.0,97,0.00,CLR,,0.07,WeatherDisplay:10.37,2013-09-05 21:07:00,
2013-09-05 17:12:00,77.4,76.5,30.02,NNW,327,0.0,1.1,97,0.00,CLR,,0.07,WeatherDisplay:10.37,2013-09-05 21:12:00,
2013-09-05 17:17:00,77.7,76.8,30.02,NNW,327,0.0,1.1,97,0.00,CLR,,0.07,WeatherDisplay:10.37,2013-09-05 21:17:00,
2013-09-05 17:22:00,78.0,77.1,30.02,NNW,327,0.0,0.0,97,0.00,CLR,,0.07,WeatherDisplay:10.37,2013-09-05 21:22:00,
2013-09-05 17:27:00,78.4,77.5,30.02,NNW,327,0.0,0.0,97,0.00,CLR,,0.07,WeatherDisplay:10.37,2013-09-05 21:27:00,
2013-09-05 17:32:00,78.9,78.0,30.02,NNW,327,0.0,0.0,97,0.00,CLR,,0.07,WeatherDisplay:10.37,2013-09-05 21:32:00,
2013-09-05 17:37:00,79.1,77.9,30.02,NNW,327,0.0,0.0,96,0.00,CLR,,0.07,WeatherDisplay:10.37,2013-09-05 21:37:00,
2013-09-05 17:42:00,79.3,77.7,30.02,NNW,327,0.0,0.0,95,0.00,CLR,,0.07,WeatherDisplay:10.37,2013-09-05 21:42:00,
2013-09-05 17:47:00,79.4,77.8,30.02,NNW,327,0.0,0.0,95,0.00,CLR,,0.07,WeatherDisplay:10.37,2013-09-05 21:47:00,
2013-09-05 17:52:00,79.8,78.2,30.02,NNW,327,0.0,0.0,95,0.00,CLR,,0.07,WeatherDisplay:10.37,2013-09-05 21:52:00,
2013-09-05 17:57:00,80.2,78.3,30.02,NNW,327,0.0,1.1,94,0.00,CLR,,0.07,WeatherDisplay:10.37,2013-09-05 21:57:00,
2013-09-05 18:02:00,80.6,78.4,30.02,NNW,327,0.0,0.0,93,0.00,CLR,,0.07,WeatherDisplay:10.37,2013-09-05 22:02:00,
2013-09-05 18:07:00,80.8,78.6,30.02,NNW,327,0.0,0.0,93,0.00,CLR,,0.07,WeatherDisplay:10.37,2013-09-05 22:07:00,
2013-09-05 18:12:00,80.7,77.8,30.02,SW,236,0.8,3.5,91,0.00,CLR,,0.07,WeatherDisplay:10.37,2013-09-05 22:12:00,
2013-09-05 18:17:00,80.5,77.6,30.02,SW,236,0.0,0.0,91,0.00,CLR,,0.07,WeatherDisplay:10.37,2013-09-05 22:17:00,
2013-09-05 18:22:00,80.4,77.5,30.01,SW,236,0.0,0.0,91,0.00,CLR,,0.07,WeatherDisplay:10.37,2013-09-05 22:22:00,
2013-09-05 18:27:00,80.2,77.0,30.02,SSW,206,2.3,3.5,90,0.00,CLR,,0.07,WeatherDisplay:10.37,2013-09-05 22:27:00,
2013-09-05 18:32:00,79.9,76.7,30.02,SSW,192,1.1,4.6,90,0.00,CLR,,0.07,WeatherDisplay:10.37,2013-09-05 22:32:00,
2013-09-05 18:37:00,79.7,76.5,30.02,South,176,0.0,2.3,90,0.00,CLR,,0.07,WeatherDisplay:10.37,2013-09-05 22:37:00,
2013-09-05 18:42:00,79.6,76.7,30.02,South,176,0.0,0.0,91,0.00,CLR,,0.07,WeatherDisplay:10.37,2013-09-05 22:42:00,
2013-09-05 18:47:00,79.5,76.6,30.02,South,182,0.4,1.0,91,0.00,CLR,,0.07,WeatherDisplay:10.37,2013-09-05 22:47:00,
2013-09-05 18:52:00,79.5,77.0,30.02,South,182,0.0,0.0,92,0.00,CLR,,0.07,WeatherDisplay:10.37,2013-09-05 22:52:00,
2013-09-05 18:57:00,79.5,77.0,30.02,South,182,0.1,1.1,92,0.00,CLR,,0.07,WeatherDisplay:10.37,2013-09-05 22:57:00,
2013-09-05 19:02:00,79.4,76.9,30.01,South,182,0.0,0.0,92,0.00,CLR,,0.07,WeatherDisplay:10.37,2013-09-05 23:02:00,
2013-09-05 19:07:00,79.4,76.9,30.01,South,182,0.0,0.0,92,0.00,CLR,,0.07,WeatherDisplay:10.37,2013-09-05 23:07:00,
2013-09-05 19:12:00,79.3,76.8,30.01,South,182,0.0,0.0,92,0.00,CLR,,0.07,WeatherDisplay:10.37,2013-09-05 23:12:00,
2013-09-05 19:17:00,79.2,76.7,30.02,South,182,0.0,0.0,92,0.00,CLR,,0.07,WeatherDisplay:10.37,2013-09-05 23:17:00,
2013-09-05 19:22:00,79.1,76.9,30.01,South,182,0.0,0.0,93,0.00,CLR,,0.07,WeatherDisplay:10.37,2013-09-05 23:22:00,
2013-09-05 19:28:00,79.0,76.8,30.01,South,182,0.0,0.0,93,0.00,CLR,,0.07,WeatherDisplay:10.37,2013-09-05 23:28:00,
2013-09-05 19:33:00,78.9,77.0,30.01,South,182,0.0,0.0,94,0.00,CLR,,0.07,WeatherDisplay:10.37,2013-09-05 23:33:00,
2013-09-05 19:38:00,78.7,76.8,30.01,South,182,0.0,0.0,94,0.00,CLR,,0.07,WeatherDisplay:10.37,2013-09-05 23:38:00,
2013-09-05 19:43:00,78.4,76.5,30.01,South,182,0.0,0.0,94,0.00,CLR,,0.07,WeatherDisplay:10.37,2013-09-05 23:43:00,
2013-09-05 19:48:00,78.2,76.3,30.01,South,182,0.0,0.0,94,0.00,CLR,,0.07,WeatherDisplay:10.37,2013-09-05 23:48:00,
2013-09-05 19:53:00,78.0,76.1,30.01,South,182,0.0,0.0,94,0.00,CLR,,0.07,WeatherDisplay:10.37,2013-09-05 23:53:00,
2013-09-05 19:58:00,77.8,75.9,30.01,South,182,0.0,0.0,94,0.00,CLR,,0.07,WeatherDisplay:10.37,2013-09-05 23:58:00,
2013-09-05 20:03:00,77.6,76.1,30.01,South,182,0.0,0.0,95,0.00,CLR,,0.07,WeatherDisplay:10.37,2013-09-06 00:03:00,
2013-09-05 20:08:00,77.4,75.9,30.01,South,182,0.0,0.0,95,0.00,CLR,,0.07,WeatherDisplay:10.37,2013-09-06 00:08:00,
2013-09-05 20:13:00,77.3,75.8,30.01,South,182,0.0,0.0,95,0.00,CLR,,0.07,WeatherDisplay:10.37,2013-09-06 00:13:00,
2013-09-05 20:18:00,77.1,75.6,30.02,South,182,0.0,0.0,95,0.00,CLR,,0.07,WeatherDisplay:10.37,2013-09-06 00:18:00,
2013-09-05 20:23:00,76.9,75.4,30.02,South,182,0.0,0.0,95,0.00,CLR,,0.07,WeatherDisplay:10.37,2013-09-06 00:23:00,
2013-09-05 20:28:00,76.8,75.3,30.02,South,182,0.0,0.0,95,0.00,CLR,,0.07,WeatherDisplay:10.37,2013-09-06 00:28:00,
2013-09-05 20:33:00,76.6,75.4,30.02,South,182,0.0,0.0,96,0.00,CLR,,0.07,WeatherDisplay:10.37,2013-09-06 00:33:00,
2013-09-05 20:38:00,76.4,75.2,30.02,South,182,0.0,0.0,96,0.00,CLR,,0.07,WeatherDisplay:10.37,2013-09-06 00:38:00,
2013-09-05 20:43:00,76.3,75.1,30.02,South,182,0.0,0.0,96,0.00,CLR,,0.07,WeatherDisplay:10.37,2013-09-06 00:43:00,
2013-09-05 20:48:00,76.1,74.9,30.02,South,182,0.0,0.0,96,0.00,CLR,,0.07,WeatherDisplay:10.37,2013-09-06 00:48:00,
2013-09-05 20:53:00,76.0,74.8,30.03,South,182,0.0,0.0,96,0.00,CLR,,0.07,WeatherDisplay:10.37,2013-09-06 00:53:00,
2013-09-05 20:58:00,75.9,74.7,30.03,South,182,0.0,0.0,96,0.00,CLR,,0.07,WeatherDisplay:10.37,2013-09-06 00:58:00,
2013-09-05 21:03:00,75.7,74.5,30.03,South,182,0.0,0.0,96,0.00,CLR,,0.07,WeatherDisplay:10.37,2013-09-06 01:03:00,
2013-09-05 21:08:00,75.5,74.3,30.03,South,182,0.0,0.0,96,0.00,CLR,,0.07,WeatherDisplay:10.37,2013-09-06 01:08:00,
2013-09-05 21:13:00,75.3,74.1,30.03,South,182,0.0,0.0,96,0.00,CLR,,0.07,WeatherDisplay:10.37,2013-09-06 01:13:00,
2013-09-05 21:18:00,75.2,74.3,30.03,South,182,0.0,0.0,97,0.00,CLR,,0.07,WeatherDisplay:10.37,2013-09-06 01:18:00,
2013-09-05 21:23:00,75.1,74.2,30.03,South,182,0.0,0.0,97,0.00,CLR,,0.07,WeatherDisplay:10.37,2013-09-06 01:23:00,
2013-09-05 21:28:00,74.9,74.0,30.03,South,182,0.0,0.0,97,0.00,CLR,,0.07,WeatherDisplay:10.37,2013-09-06 01:28:00,
2013-09-05 21:33:00,74.9,74.0,30.03,South,182,0.0,0.0,97,0.00,CLR,,0.07,WeatherDisplay:10.37,2013-09-06 01:33:00,
2013-09-05 21:38:00,74.9,74.0,30.03,South,182,0.0,0.0,97,0.00,CLR,,0.07,WeatherDisplay:10.37,2013-09-06 01:38:00,
2013-09-05 21:43:00,74.8,73.9,30.04,South,182,0.0,0.0,97,0.00,CLR,,0.07,WeatherDisplay:10.37,2013-09-06 01:43:00,
2013-09-05 21:48:00,74.8,73.9,30.04,South,182,0.0,0.0,97,0.00,CLR,,0.07,WeatherDisplay:10.37,2013-09-06 01:48:00,
2013-09-05 21:53:00,74.7,73.8,30.04,South,182,0.0,0.0,97,0.00,CLR,,0.07,WeatherDisplay:10.37,2013-09-06 01:53:00,
2013-09-05 21:58:00,74.6,73.7,30.04,South,182,0.0,0.0,97,0.00,CLR,,0.07,WeatherDisplay:10.37,2013-09-06 01:58:00,
2013-09-05 22:03:00,74.5,73.9,30.04,South,182,0.0,0.0,98,0.00,CLR,,0.07,WeatherDisplay:10.37,2013-09-06 02:03:00,
2013-09-05 22:08:00,74.6,74.0,30.04,South,182,0.0,0.0,98,0.00,CLR,,0.07,WeatherDisplay:10.37,2013-09-06 02:08:00,
2013-09-05 22:13:00,74.4,73.8,30.04,South,182,0.0,0.0,98,0.00,CLR,,0.07,WeatherDisplay:10.37,2013-09-06 02:13:00,
2013-09-05 22:18:00,74.3,73.4,30.04,South,182,0.0,0.0,97,0.00,CLR,,0.07,WeatherDisplay:10.37,2013-09-06 02:18:00,
2013-09-05 22:23:00,74.2,73.3,30.04,South,182,0.0,0.0,97,0.00,CLR,,0.07,WeatherDisplay:10.37,2013-09-06 02:23:00,
2013-09-05 22:28:00,74.0,73.1,30.05,South,182,0.0,0.0,97,0.00,CLR,,0.07,WeatherDisplay:10.37,2013-09-06 02:28:00,
2013-09-05 22:33:00,73.9,73.3,30.05,South,182,0.0,0.0,98,0.00,CLR,,0.07,WeatherDisplay:10.37,2013-09-06 02:33:00,
2013-09-05 22:38:00,73.7,73.1,30.05,South,182,0.0,0.0,98,0.00,CLR,,0.07,WeatherDisplay:10.37,2013-09-06 02:38:00,
2013-09-05 22:43:00,73.7,73.1,30.04,South,182,0.0,0.0,98,0.00,CLR,,0.07,WeatherDisplay:10.37,2013-09-06 02:43:00,
2013-09-05 22:48:00,73.8,73.2,30.04,South,182,0.0,0.0,98,0.00,CLR,,0.07,WeatherDisplay:10.37,2013-09-06 02:48:00,
2013-09-05 22:53:00,73.8,73.2,30.05,South,182,0.0,0.0,98,0.00,CLR,,0.07,WeatherDisplay:10.37,2013-09-06 02:53:00,
2013-09-05 22:58:00,73.7,73.1,30.05,South,182,0.0,0.0,98,0.00,CLR,,0.07,WeatherDisplay:10.37,2013-09-06 02:58:00,
2013-09-05 23:03:00,73.5,72.9,30.05,South,182,0.0,0.0,98,0.00,CLR,,0.07,WeatherDisplay:10.37,2013-09-06 03:03:00,
2013-09-05 23:08:00,73.3,72.7,30.05,South,182,0.0,0.0,98,0.00,CLR,,0.07,WeatherDisplay:10.37,2013-09-06 03:08:00,
2013-09-05 23:13:00,73.3,72.7,30.05,South,182,0.0,0.0,98,0.00,CLR,,0.07,WeatherDisplay:10.37,2013-09-06 03:13:00,
2013-09-05 23:18:00,73.3,72.7,30.05,South,182,0.0,0.0,98,0.00,CLR,,0.07,WeatherDisplay:10.37,2013-09-06 03:18:00,
2013-09-05 23:23:00,73.3,72.7,30.05,South,182,0.0,0.0,98,0.00,CLR,,0.07,WeatherDisplay:10.37,2013-09-06 03:23:00,
2013-09-05 23:28:00,73.2,72.6,30.05,South,182,0.0,0.0,98,0.00,CLR,,0.07,WeatherDisplay:10.37,2013-09-06 03:28:00,
2013-09-05 23:33:00,73.1,72.5,30.04,South,182,0.0,0.0,98,0.00,CLR,,0.07,WeatherDisplay:10.37,2013-09-06 03:33:00,
2013-09-05 23:38:00,73.0,72.4,30.04,South,182,0.0,0.0,98,0.00,CLR,,0.07,WeatherDisplay:10.37,2013-09-06 03:38:00,
2013-09-05 23:43:00,72.9,72.3,30.04,South,182,0.0,0.0,98,0.00,CLR,,0.07,WeatherDisplay:10.37,2013-09-06 03:43:00,
2013-09-05 23:48:00,72.8,72.2,30.04,South,182,0.0,0.0,98,0.00,CLR,,0.07,WeatherDisplay:10.37,2013-09-06 03:48:00,
2013-09-05 23:53:00,72.7,72.1,30.04,South,182,0.0,0.0,98,0.00,CLR,,0.07,WeatherDisplay:10.37,2013-09-06 03:53:00,
2013-09-05 23:58:00,72.5,71.9,30.04,South,182,0.0,0.0,98,0.00,CLR,,0.07,WeatherDisplay:10.37,2013-09-06 03:58:00,